RH
19 21 21 22 24 26 27 29 29 29 31 28 37 41 34 31 34 48 71 61 33 31 32 32 38 61 77 83 91 99 94 88 84 79 64 46 83 92 97 89 85 66 36
21 22 23 24 27 28 28 27 27 28 31 34 38 47 43 45 35 36 68 76 57 38 36 33 31 31 33 38 63 85 88 88 81 47 25 20 44 74 90 99 99 95 88
23 24 25 28 31 29 28 30 31 31 34 33 39 46 31 29 30 35 53 72 86 62 40 35 34 33 31 27 28 37 45 44 43 33 22 17 20 59 84 87 95 92 78
26 26 29 32 32 29 30 31 33 33 35 34 32 34 32 32 30 33 42 70 93 85 68 44 42 41 42 42 42 42 78 87 80 76 82 57 24 15 62 85 88 88 79
29 30 32 33 32 30 32 33 40 35 33 30 32 37 29 31 32 52 61 52 66 56 58 74 48 51 51 50 46 45 47 49 56 82 92 92 92 52 17 60 80 86 89
32 32 32 36 34 35 39 35 37 36 40 27 24 53 27 32 41 44 49 57 61 45 54 48 48 53 51 50 53 50 45 42 47 59 94 95 92 93 90 40 48 73 86
35 34 37 38 36 38 36 37 35 38 35 21 36 35 52 41 44 48 46 48 43 39 37 42 37 40 42 36 22 14 22 24 27 37 39 90 94 92 92 94 91 87 81
37 38 41 41 40 38 39 40 35 30 42 23 18 44 41 48 55 38 24 28 29 37 52 53 21 12 11 10 11 11 10 13 18 59 69 75 92 99 93 95 96 90 92
39 41 39 41 40 40 44 42 34 23 26 37 12 14 38 38 18 40 46 37 42 47 49 31 21 18 14 12 14 27 15 20 26 40 93 94 96 95 96 98 86 92 91
43 39 39 41 40 42 47 44 26 22 16 23 23 12 12 16 47 36 31 36 42 45 45 42 30 21 23 17 14 15 17 23 28 29 34 89 95 93 94 98 88 93 98
42 37 39 40 42 48 50 42 22 18 11 10 12 16 28 41 54 64 59 47 45 44 44 44 43 46 54 26 28 24 21 19 16 14 10 12 86 93 92 94 100 97 94
37 38 41 42 47 52 50 27 20 12 10 12 13 17 33 40 44 50 51 46 49 43 42 42 48 47 41 32 19 14 16 12 10 10 10 28 91 94 95 97 99 98 99
38 38 41 46 50 52 41 21 13 10 12 14 18 36 38 35 34 35 39 47 49 42 45 42 44 42 30 27 17 15 10 10 10 12 12 21 74 77 87 90 94 88 98
42 38 45 51 54 49 22 16 11 12 15 19 37 39 38 36 36 37 37 42 44 48 46 37 32 37 35 29 16 11 8 10 11 11 12 15 18 15 16 22 31 32 31
40 44 49 54 51 24 19 12 12 16 19 37 40 41 40 37 37 38 40 38 42 61 50 37 35 40 53 54 42 15 10 9 10 12 12 15 18 21 24 24 34 32 28
43 47 50 48 26 21 15 13 17 20 33 40 41 43 41 39 40 39 40 37 40 51 63 41 27 30 41 48 38 22 12 10 10 12 12 12 16 24 32 44 34 27 25
45 46 42 26 23 17 14 17 22 23 26 34 44 46 43 42 42 42 40 39 39 42 56 34 41 34 40 50 52 47 26 21 14 12 13 12 13 17 28 31 34 34 34
44 37 27 24 20 17 17 21 24 27 38 48 48 48 46 44 42 41 40 38 40 49 63 54 58 58 50 45 46 63 42 37 35 18 17 18 17 17 18 19 23 29 35
37 30 27 25 21 19 20 23 28 41 49 50 52 50 44 42 40 37 40 45 52 61 68 70 60 67 70 69 59 51 73 80 58 67 60 45 36 27 24 24 26 30 32
34 31 29 27 24 22 21 24 33 42 52 52 48 50 50 51 48 45 44 48 50 61 67 70 72 73 76 76 81 78 71 72 80 78 76 71 71 88 62 53 42 29 31
34 32 31 28 25 22 26 33 49 52 49 45 42 44 50 53 54 45 45 37 50 61 78 87 83 84 84 84 81 80 79 77 78 82 82 83 81 83 85 77 67 63 93
35 33 29 24 24 33 40 49 48 45 38 24 20 24 32 36 46 59 61 74 85 94 90 91 87 96 91 89 78 78 78 84 87 77 81 85 89 92 73 79 78 88 81
32 27 27 32 40 45 46 43 28 18 18 23 30 33 41 58 68 74 80 89 91 92 92 93 98 90 92 88 74 84 82 83 86 81 78 90 86 79 83 90 84 88 89
29 34 38 43 46 32 18 16 22 24 26 27 38 61 76 81 87 94 92 88 82 80 88 88 88 84 84 82 88 90 82 88 80 77 87 97 82 99 93 82 89 92 87
37 45 40 20 16 18 25 25 26 27 33 44 67 82 87 90 94 95 94 93 88 83 82 81 85 90 82 82 76 77 76 83 87 96 92 91 80 76 78 79 77 82 95
27 16 15 21 25 28 28 28 34 40 49 77 90 86 94 94 90 96 94 92 93 84 90 82 88 86 90 96 94 94 94 100 98 96 74 86 90 96 94 75 88 91 94
Wind_Speed
1 2 4 5 7 9 10 10 11 11 10 10 9 9 9 8 6 5 6 13 10 10 10 9 9 9 11 11 10 9 14 16 17 20 23 17 10 8 5 5 8 11 15
0 2 4 6 8 9 10 11 11 11 11 11 10 9 9 7 9 6 3 11 13 10 10 10 10 10 11 11 11 14 16 17 19 20 16 13 12 12 10 7 4 2 4
1 3 4 7 8 10 11 11 11 11 10 10 9 8 10 10 8 7 5 3 9 12 10 10 11 11 11 11 11 11 13 14 15 16 15 13 13 14 14 13 11 11 12
2 3 5 7 9 10 11 11 10 10 9 10 10 9 10 9 7 5 5 4 5 4 12 11 11 12 13 12 12 12 12 13 14 15 15 15 13 14 17 17 15 14 16
3 4 5 7 8 9 10 9 9 10 9 10 10 10 9 7 6 5 4 6 7 8 8 13 14 15 15 15 15 15 16 16 16 15 15 15 17 15 15 19 19 17 17
4 5 7 7 8 9 8 9 9 9 10 11 9 8 8 7 6 5 5 7 9 11 12 13 15 16 18 16 17 19 20 20 20 18 16 17 15 16 17 15 18 21 18
6 6 7 7 7 7 8 7 8 8 8 10 8 6 8 9 4 5 9 9 9 10 13 13 16 17 19 22 24 24 22 23 22 22 21 16 16 15 16 17 15 16 20
8 7 6 7 7 7 7 7 7 7 8 9 10 7 4 3 3 10 9 8 10 11 12 15 20 20 20 22 22 21 21 20 18 15 15 16 15 16 14 15 16 15 15
9 7 7 8 8 7 6 6 7 5 5 9 9 5 4 3 13 7 9 11 10 13 13 17 16 19 19 19 19 17 21 18 17 15 13 13 13 14 15 15 16 15 16
9 8 8 8 8 7 6 6 6 6 5 5 7 6 3 5 3 8 6 12 16 17 21 22 18 18 20 18 18 20 17 17 17 18 18 17 16 14 15 16 17 16 17
9 9 9 9 8 7 7 7 6 6 5 4 3 4 5 7 7 6 12 18 19 18 20 20 23 17 17 19 16 16 17 19 19 21 22 21 18 17 16 17 17 18 16
9 9 9 9 8 7 7 6 6 6 5 4 4 4 4 4 7 10 15 20 21 23 18 23 20 17 17 16 19 21 20 25 26 23 22 19 15 16 18 19 19 17 15
9 9 9 8 8 8 7 7 6 6 5 5 4 4 7 11 14 17 18 22 21 24 21 17 19 24 20 18 19 23 24 25 23 22 21 20 18 18 18 18 18 25 20
9 8 8 8 8 8 8 7 7 7 6 5 6 9 12 15 17 20 20 21 26 24 21 16 16 20 25 21 22 24 24 24 23 21 21 20 20 20 22 22 20 19 23
8 7 8 8 8 8 9 8 8 8 8 8 10 13 16 19 21 23 23 22 22 23 24 18 17 18 22 24 26 27 25 24 22 21 21 21 20 18 18 19 19 19 20
7 7 8 8 9 9 9 9 9 10 10 12 15 18 20 22 24 26 26 25 23 24 30 25 28 24 25 28 29 26 26 25 23 22 21 21 20 20 20 18 18 19 19
7 7 8 8 9 10 10 10 11 13 14 16 19 22 24 25 27 28 27 27 28 27 30 37 32 30 28 27 30 28 26 26 25 23 21 20 21 19 19 20 20 20 20
7 7 8 9 10 10 11 12 13 15 17 20 23 24 26 27 28 28 28 29 29 29 29 37 33 32 32 30 31 29 28 25 23 22 22 22 20 20 20 21 21 21 21
7 7 8 9 10 11 13 14 15 18 21 23 25 26 28 28 29 29 29 29 30 30 30 32 39 32 30 28 31 29 26 24 22 20 20 21 20 20 20 21 21 21 22
7 8 9 10 11 13 15 16 18 21 24 26 29 30 31 30 30 31 32 32 33 31 31 31 34 33 29 27 26 27 26 20 17 18 18 22 22 21 19 17 18 20 22
7 8 9 12 13 14 15 18 22 26 29 31 32 30 28 28 29 33 33 33 32 31 31 31 33 32 30 26 25 24 23 22 23 19 20 20 19 16 19 21 23 22 19
7 9 10 11 12 15 20 22 27 30 32 32 33 32 31 32 29 27 27 25 25 28 32 33 36 34 33 29 28 27 24 23 23 23 19 17 17 25 25 20 24 22 25
7 8 10 14 17 20 25 27 29 31 32 31 30 30 30 26 25 26 25 24 26 25 26 30 34 36 36 35 34 31 28 26 25 27 26 27 27 32 20 23 23 23 25
8 11 15 19 22 24 27 27 29 29 28 26 24 24 24 24 23 23 27 29 28 28 28 28 29 31 31 30 28 29 31 29 30 30 26 28 26 23 25 31 26 22 23
13 17 20 22 23 24 25 25 26 25 25 23 22 21 22 24 22 24 27 30 31 31 30 29 29 30 30 28 28 31 33 30 30 26 23 23 30 36 30 26 24 19 16
17 19 20 21 21 22 21 23 22 22 24 23 23 23 21 21 23 25 27 31 34 35 32 31 30 28 29 29 28 26 27 25 24 26 22 18 23 24 29 26 12 11 16
Wind_Direction
83 37 9 2 1 3 359 358 359 359 359 359 356 351 350 343 341 327 315 318 325 324 320 309 299 288 279 277 270 288 282 282 290 294 298 299 264 261 265 282 287 270 259
6 353 346 353 356 354 352 356 357 358 0 355 358 344 341 344 333 329 304 316 325 325 323 317 312 305 297 291 286 285 290 291 292 294 296 292 269 255 253 254 255 245 256
288 321 336 350 348 349 355 354 354 359 358 353 352 350 344 339 337 328 316 286 320 331 332 327 326 325 321 315 306 304 305 306 306 305 302 293 280 256 247 252 262 264 257
284 317 340 337 344 350 351 352 352 357 356 357 358 351 350 349 345 337 326 318 306 310 327 333 325 322 320 319 316 313 316 317 314 317 317 309 292 274 255 251 253 264 258
292 317 323 329 341 346 349 352 349 352 1 0 359 346 348 356 356 356 334 331 310 316 303 311 315 313 311 310 309 307 306 305 306 309 312 313 311 296 271 256 253 252 259
295 301 309 320 335 343 343 345 349 354 352 357 0 341 348 354 359 352 339 334 313 314 308 313 316 314 315 311 310 306 304 302 298 299 303 303 305 306 303 280 256 249 253
282 287 296 313 328 330 331 343 351 349 345 359 12 344 326 341 343 348 331 321 313 326 321 320 318 313 308 304 303 300 296 294 293 291 290 290 293 299 302 299 292 263 248
272 279 289 297 308 319 327 336 343 349 345 355 3 14 340 283 358 307 329 326 322 326 327 321 314 314 310 309 306 306 298 297 294 301 302 297 296 294 293 293 292 284 272
271 274 279 286 297 304 307 322 331 338 345 342 1 15 337 324 326 335 324 334 323 322 311 307 318 316 312 311 307 302 306 304 298 294 305 298 293 290 285 286 286 282 275
267 271 275 279 289 295 296 306 312 322 339 329 352 353 346 308 338 321 319 329 322 328 316 318 308 312 310 309 305 301 304 304 303 301 300 303 297 288 283 285 276 273 264
267 269 275 280 281 279 286 296 298 316 327 325 331 329 336 338 337 312 310 316 318 303 305 313 313 310 300 305 298 292 301 301 300 297 295 293 297 295 286 279 290 286 271
266 272 275 273 273 277 282 282 297 305 304 303 313 334 356 341 309 310 302 304 301 312 294 308 304 301 293 299 304 304 305 304 304 301 296 294 297 291 284 281 268 273 265
269 273 269 270 272 276 279 282 287 284 284 294 306 314 320 324 322 321 310 304 297 301 303 299 298 298 304 289 299 299 306 306 306 306 301 292 289 288 287 285 286 261 261
266 274 270 270 274 275 271 276 277 279 285 285 291 305 316 321 321 320 307 302 303 300 298 298 286 284 293 295 301 306 309 307 306 305 303 298 295 292 290 289 284 274 261
268 272 268 269 271 267 274 276 274 277 280 284 295 306 314 318 318 317 311 303 293 293 296 293 283 286 295 301 302 304 305 304 304 304 303 302 299 296 290 286 285 280 269
267 264 265 268 267 272 273 272 275 278 280 292 301 308 311 312 312 312 305 299 291 285 281 287 292 283 279 281 290 297 300 299 299 300 298 297 297 296 295 293 290 286 281
259 263 264 265 269 272 274 276 279 282 286 295 303 307 307 310 308 306 302 295 292 288 281 293 291 295 289 286 292 294 293 294 295 297 295 292 292 290 289 290 291 290 289
259 263 266 269 273 276 277 280 284 289 295 299 301 302 304 307 304 303 298 295 292 287 277 283 287 284 284 288 287 286 289 289 288 290 290 291 286 284 286 286 286 285 285
264 266 269 274 278 280 285 289 291 294 296 299 301 300 300 301 299 298 293 288 286 282 278 277 285 284 282 285 290 287 283 284 285 288 294 298 295 287 285 285 285 285 283
266 272 280 284 287 291 293 293 294 296 299 301 302 302 303 301 300 298 296 291 289 287 284 281 280 283 283 283 280 284 286 284 277 273 273 281 288 289 296 293 288 287 281
276 287 293 296 296 296 297 299 299 300 302 303 304 303 298 295 289 291 294 297 299 295 287 282 280 280 279 277 276 279 276 275 280 279 285 287 285 287 278 291 296 300 297
297 299 297 298 305 305 299 301 302 303 304 305 305 304 300 298 302 297 296 294 292 291 289 286 282 277 276 275 277 274 275 274 276 282 282 277 280 276 291 285 294 286 286
299 307 313 307 303 302 303 305 304 304 305 307 306 305 305 305 302 304 302 300 298 294 286 285 283 283 281 278 276 278 277 275 275 278 288 281 281 292 294 287 286 285 292
318 310 304 304 306 307 306 308 307 308 309 310 308 309 305 306 304 307 308 308 307 304 299 293 286 286 284 283 278 273 272 273 275 277 282 281 296 290 286 289 290 282 279
307 306 308 308 309 310 310 310 311 313 314 312 314 306 304 308 308 304 307 308 307 304 305 298 292 288 290 286 279 267 266 270 277 280 285 284 284 288 291 294 299 294 277
309 312 313 314 315 315 315 313 313 315 315 315 308 306 307 305 305 307 309 308 306 306 308 306 296 290 286 284 281 270 264 264 275 289 297 285 283 287 293 300 291 271 257